Regional Weather Roundup
Issued by NWS Upton, NY

Current Version | Previous Version | Text Only | Print | Product List | Glossary On
Versions: 1 2 3 4 5 6 7 8 9 10 11 12 13 14 15 16 17 18 19 20 21 22 23 24 25 26 27 28
000
ASUS41 KOKX 061808
RWROKX

REGIONAL WEATHER ROUNDUP
NATIONAL WEATHER SERVICE NEW YORK NY
100 PM EST TUE DEC 06 2016

NOTE: "FAIR" INDICATES FEW OR NO CLOUDS BELOW 12,000 FEET WITH NO
SIGNIFICANT WEATHER AND/OR OBSTRUCTIONS TO VISIBILITY.

NYZ071-072-176-178-NJZ106-104-061900-
NEW YORK CITY METRO AREA

CITY           SKY/WX    TMP DP  RH WIND       PRES   REMARKS
Central Park   CLOUDY    45  31  58 E8        30.07F
Wall St Helipt CLOUDY    47  33  58 NE12      30.05F
Bronx Bot Gard   N/A     45  30  57 E13       30.05F
LaGuardia APRT CLOUDY    47  33  58 NE10      30.05F
Kennedy INTL   CLOUDY    46  29  51 E8        30.07F
Breezy Point     N/A     43 N/A N/A E9          N/A
Newark/Liberty CLOUDY    46  30  53 E7        30.04F
Teterboro      CLOUDY    46  29  51 E9        30.04F
$$

NYZ177-179-078>081-061900-
LONG ISLAND NEW YORK

CITY           SKY/WX    TMP DP  RH WIND       PRES   REMARKS
Jones Beach      N/A     43 N/A N/A E10         N/A
Matinecock PT  NOT AVBL
Farmingdale    CLOUDY    46  31  55 CALM      30.06F
MacArthur/ISP  CLOUDY    45  28  51 E7        30.06S
Shirley        CLOUDY    45  29  53 VRB5      30.06F
Westhampton    PTSUNNY   45  28  51 NE5       30.08F
Southampton    NOT AVBL
Bridgehampton  NOT AVBL
East Hampton     N/A     44  27  51 NE6       30.06F
Montauk          N/A     45  29  53 NE7       30.08F
$$

NYZ052-065-067-061900-
HUDSON VALLEY

CITY           SKY/WX    TMP DP  RH WIND       PRES   REMARKS
White Plains   PTSUNNY   44  28  53 E8        30.03F
Newburgh       PTSUNNY   43  32  65 VRB6      30.06F
Montgomery     CLOUDY    43  30  60 VRB3      30.03F
Poughkeepsie   CLOUDY    42  30  62 CALM      30.05F
Albany         PTSUNNY   43  28  55 VRB5      30.06F
$$

NJZ001-105-106-008-010-013-015-019>022-104-061900-
NEW JERSEY

CITY           SKY/WX    TMP DP  RH WIND       PRES   REMARKS
Newark/Liberty CLOUDY    46  30  53 E7        30.04F
Teterboro      CLOUDY    46  29  51 E9        30.04F
Caldwell       MOSUNNY   44  31  60 E7        30.04F
Somerville     CLOUDY    45  31  58 E6        30.01F
Linden         NOT AVBL
Sussex         CLOUDY    43  32  65 VRB6      30.01F
Andover          N/A     42  28  57 CALM      30.01F
Trenton        CLOUDY    44  31  60 E12       30.02F
Millville      LGT RAIN  45  39  79 NE8       30.01F
Atlantic City  CLOUDY    47  37  68 E12       30.02F
Wrightstown    CLOUDY    46  34  64 E10       30.00F
Toms River     CLOUDY    46  35  65 E8        30.04F
Belmar         CLOUDY    45  33  63 E10       30.04F
$$

PAZ047>061-062-071-061900-
EASTERN PENNSYLVANIA

CITY           SKY/WX    TMP DP  RH WIND       PRES   REMARKS
Philadelphia   LGT RAIN  45  35  68 E10       30.02F
Allentown      CLOUDY    41  31  67 E6        30.01F
Scranton       CLOUDY    41  28  60 VRB6      29.97F
$$

CTZ002-004>006-009-010-012-RIZ004-006-007-MAZ004-011-015-061900-
SOUTHERN NEW ENGLAND
 IN CT

CITY           SKY/WX    TMP DP  RH WIND       PRES   REMARKS
Bradley INTL   PTSUNNY   46  27  47 NE7       30.06F
Hartford       MOSUNNY   45  29  53 VRB3      30.07F
Danbury        MOSUNNY   43  29  57 E3        30.06F
Wtrbury/Oxford CLOUDY    43  27  52 E5        30.06F
Bridgeport     NOT AVBL
Meriden        CLOUDY    46  29  51 CALM      30.07F
New Haven      CLOUDY    45  30  55 SE7       30.07F
Chester          N/A     45  27  49 CALM      30.05F
Groton         CLOUDY    48  31  51 E5        30.06F
Wilimantic     CLOUDY    46  29  51 NE5       30.06F

 IN RI

CITY           SKY/WX    TMP DP  RH WIND       PRES   REMARKS
Providence     PTSUNNY   46  28  49 NE6       30.08F
Block Island   MOSUNNY   43  30  60 NE8       30.07F
Westerly       CLOUDY    46  27  47 VRB6      30.07F
 IN MA

CITY           SKY/WX    TMP DP  RH WIND       PRES   REMARKS
Boston         CLOUDY    43  27  53 N9        30.07F
Worcester      SUNNY     40  26  57 NW5       30.04S
Westfield      MOSUNNY   44  26  49 N6        30.06F
Provincetown   PTSUNNY   42  31  64 N6        30.08F
Nantucket      CLOUDY    45  31  58 N9        30.06F
$$

ANZ330-335-338-340-345-350-353-355-061900-
COASTAL MARINE OBSERVATIONS


STATION/POSITION TIME  SKY/WX   TEMP    WIND        PRES    VSBY  WAVE
                                AIR SEA DIR/SP/G                  HT/PER
                 (UTC)          (F)     (DEG/KT/KT) (MB)    (MI)  (FT/S)
NY HARB ENTRANCE 1650            45 52   80/ 14/ 17 1017.9          2/10
20 S FIRE ISLAND 1650            46 54   70/ 14/ 17 1017.8          3/10
GREAT SOUTH BAY  1645            43 44                N/A
23 SSW MONTAUK P 1650            45 54   60/ 10/ 14 1019.1          3/10
15 E BARNEGAT LI 1730               54                N/A           4/ 4
HUDSON CANYON    1650            49 58              1017.5          4/11
KINGS POINT      1718            44 48              1018.2
EXECUTION ROCKS  1715            44      60/  8/ 12   N/A
CENTRAL LI SOUND 1645            43 50   40/  4/  6   N/A           1
EASTERN LI SOUND NOT AVBL
ROBBINS REEF     1718            44      90/ 10/ 12 1018.3
$$


>>>>>>>>>>>>>>>>>>>>>>>>>>>> KEY <<<<<<<<<<<<<<<<<<<<<<<<<<<
>                                                          <
>     SKY/WX - Sky Condition/Present Weather               <
>     TMP    - Temperature in Fahrenheit                   <
>     DP     - Dew Point in Fahrenheit                     <
>     RH     - Relative Humidity in Percent                <
>     WIND   - Direction (from) and Speed in MPH           <
>     PRES   - Mean Sea Level Pressure (inches of Hg)      <
>     WCI    - Wind Chill Index                            <
>     VSB    - VISIBILITY IN MILES                         <
>     HX     - HEAT INDEX                                  <
>     TC     - TEMPERATURE IN CELSIUS                      <
>     VRB    - VARIABLE WIND DIRECTION                     <
>                                                          <
>>>>>>>>>>>>>>>>>>>>>>>>>>>> KEY <<<<<<<<<<<<<<<<<<<<<<<<<<<




USA.gov is the U.S. government's official web portal to all federal, state and local government web resources and services.